Bangor, ME

7:25 AM EDT on October 14, 2019 (GMT -0400)
Bangor International

Weather History for KBGR - August, 2019

Change the Weather History Date:

Friday, August 23, 2019

  Actual Average Record
Temperature  
Mean Temperature 68 °F 66 °F  
Max Temperature 77 °F 77 °F 92 °F (1933)
Min Temperature 58 °F 55 °F 37 °F (1940)
Degree Days  
Heating Degree Days 0 2  
Month to date heating degree days 1 25  
Since 1 June heating degree days 91 155  
Since 1 July heating degree days 1 48  
Cooling Degree Days 3 3  
Month to date cooling degree days 92 83  
Year to date cooling degree days 318 273  
Since 1 June cooling degree days 318 267  
Growing Degree Days 18 (Base 50)    
Moisture  
Dew Point 55 °F    
Average Humidity 67    
Maximum Humidity 93    
Minimum Humidity 41    
Precipitation  
Precipitation 0.00 in 0.09 in 1.13 in (1964)
Month to date precipitation 5.90 2.27  
Year to date precipitation 34.57 25.54  
Snow  
Snow 0.00 in 0.00 in 0.00 in (2002)
Month to date snowfall 0.0 0.0  
Since 1 June snowfall 0.0 0.0  
Since 1 July snowfall 0.0 0.0  
Snow Depth 0.00 in    
Sea Level Pressure  
Sea Level Pressure 29.89 in    
Wind  
Wind Speed 6 mph (WNW)    
Max Wind Speed 16 mph    
Max Gust Speed 22 mph    
Visibility 10 miles    
Events      
T = Trace of Precipitation, MM = Missing Value Source: NWS Daily Summary

Daily Weather History Graph

Daily Weather History Graph

Search for Another Location

Airport or City:

Astronomy

Aug. 23, 2019 Rise Set
Actual Time 5:46 AM EDT 7:28 PM EDT
Civil Twilight 5:15 AM EDT 7:59 PM EDT
Nautical Twilight 4:37 AM EDT 8:37 PM EDT
Astronomical Twilight 3:56 AM EDT 9:17 PM EDT
Moon 11:33 PM EDT (8/23) 1:39 PM EDT (8/23)
Length of Visible Light 14h 43m
Length of Day
13h 41m
Waning Gibbous, 50% of the Moon is Illuminated
Aug 23
Waning Gibbous
Aug 30
New
Sep 5
First Quarter
Sep 14
Full
Sep 21
Last Quarter

Hourly Weather History & Observations

Time (EDT) Temp. Dew Point Humidity Pressure Visibility Wind Dir Wind Speed Gust Speed Precip Events Conditions
12:53 AM 64.9 °F 63.0 °F 93% 29.82 in 10.0 mi Calm Calm - N/A   Scattered Clouds
1:53 AM 64.9 °F 61.0 °F 87% 29.83 in 10.0 mi West 6.9 mph - N/A   Partly Cloudy
2:53 AM 62.1 °F 60.1 °F 93% 29.83 in 10.0 mi WSW 4.6 mph - N/A   Partly Cloudy
3:53 AM 62.1 °F 60.1 °F 93% 29.83 in 10.0 mi West 4.6 mph - N/A   Partly Cloudy
4:53 AM 62.1 °F 59.0 °F 90% 29.84 in 10.0 mi WSW 4.6 mph - N/A   Scattered Clouds
5:53 AM 61.0 °F 57.9 °F 90% 29.85 in 10.0 mi WSW 8.1 mph - N/A   Partly Cloudy
6:53 AM 62.1 °F 57.9 °F 86% 29.86 in 10.0 mi West 5.8 mph - N/A   Partly Cloudy
7:53 AM 64.9 °F 59.0 °F 81% 29.88 in 10.0 mi West 6.9 mph - N/A   Partly Cloudy
8:53 AM 66.9 °F 60.1 °F 79% 29.90 in 10.0 mi West 6.9 mph - N/A   Partly Cloudy
9:53 AM 71.1 °F 57.9 °F 63% 29.90 in 10.0 mi NNW 11.5 mph - N/A   Partly Cloudy
10:53 AM 72.0 °F 55.0 °F 55% 29.90 in 10.0 mi NW 9.2 mph - N/A   Scattered Clouds
11:53 AM 72.0 °F 55.0 °F 55% 29.89 in 10.0 mi NW 5.8 mph - N/A   Mostly Cloudy
12:53 PM 73.0 °F 54.0 °F 51% 29.88 in 10.0 mi NW 13.8 mph 17.3 mph N/A   Mostly Cloudy
1:53 PM 75.9 °F 52.0 °F 43% 29.88 in 10.0 mi NW 10.4 mph 20.7 mph N/A   Mostly Cloudy
2:53 PM 75.0 °F 50.0 °F 41% 29.88 in 10.0 mi West 12.7 mph 19.6 mph N/A   Mostly Cloudy
3:53 PM 75.9 °F 52.0 °F 43% 29.88 in 10.0 mi Variable 5.8 mph 17.3 mph N/A   Scattered Clouds
4:53 PM 75.0 °F 51.1 °F 43% 29.89 in 10.0 mi WNW 10.4 mph - N/A   Mostly Cloudy
5:53 PM 72.0 °F 52.0 °F 49% 29.91 in 10.0 mi WNW 6.9 mph - N/A   Mostly Cloudy
6:53 PM 70.0 °F 48.9 °F 47% 29.93 in 10.0 mi NW 10.4 mph - N/A   Mostly Cloudy
7:53 PM 66.9 °F 48.9 °F 52% 29.95 in 10.0 mi NW 8.1 mph - N/A   Mostly Cloudy
8:53 PM 64.0 °F 50.0 °F 60% 29.97 in 10.0 mi WNW 4.6 mph - N/A   Mostly Cloudy
9:53 PM 62.1 °F 50.0 °F 65% 29.97 in 10.0 mi West 6.9 mph - N/A   Scattered Clouds
10:53 PM 60.1 °F 51.1 °F 72% 29.98 in 10.0 mi NW 6.9 mph - N/A   Partly Cloudy
11:53 PM 57.9 °F 51.1 °F 78% 29.99 in 10.0 mi West 9.2 mph - N/A   Clear